Regional Weather Roundup
Issued by NWS Cleveland, OH

Home | Current Version | Previous Version | Graphics & Text | Print | Product List | Glossary On
Versions: 1 2 3 4 5 6 7 8 9 10 11 12 13 14 15 16 17 18 19 20 21 22 23 24 25 26 27 28 29 30 31 32 33 34 35 36 37 38 39 40 41 42 43 44 45 46 47 48 49 50
440
ASUS41 KCLE 110312
RWRCLE
OHIO REGIONAL WEATHER ROUNDUP
NATIONAL WEATHER SERVICE WILMINGTON, OH
1000 PM EST WED FEB 10 2016

NOTE: "FAIR" INDICATES FEW OR NO CLOUDS BELOW 12,000 FEET WITH NO
SIGNIFICANT WEATHER AND/OR OBSTRUCTIONS TO VISIBILITY.

OHZ001>008-015>018-024>027-034-035-043-044-110400-
   NORTHWEST OHIO

CITY           SKY/WX    TMP DP  RH WIND       PRES   REMARKS
DEFIANCE       LGT SNOW  16  10  77 W12G18    30.06R WCI   3
FINDLAY        CLOUDY    17   8  67 W16       30.02R WCI   2
TOLEDO EXPRESS CLOUDY    17   4  56 NW14      30.01R WCI   3
TOLEDO EXEC    CLOUDY    18   7  62 NW14      30.02R WCI   4
LIMA           CLOUDY    15   9  76 W17       30.04R WCI  -1
$$

OHZ009>014-019>023-028>033-038-089-110400-
   NORTHEAST OHIO

CITY           SKY/WX    TMP DP  RH WIND       PRES   REMARKS
CLE-HOPKINS    SNOW      18  14  84 W8        29.97R VSB 1/2 WCI   8
CLE-LAKEFRONT  LGT SNOW  21  12  68 NW25G35   29.93R WCI   4
CUY CO. ARPT   CLOUDY    19  12  73 NW14G23   29.92R WCI   6
LORAIN-ELYRIA  MOCLDY    17  11  77 W15G21    29.96R WCI   2
ASHTABULA      LGT SNOW  17  13  84 W6        29.89S FOG     WCI   9
AKRON-CANTON   LGT SNOW  15  10  80 W15       29.92R VSB 1   WCI   0
WOOSTER        LGT SNOW  15  10  80 W18       29.95R WCI  -2
MANSFIELD      LGT SNOW  14   9  80 SW13G23   29.95R WCI   0
YOUNGSTOWN     LGT SNOW  17  13  84 W15       29.88R VSB 1   WCI   2
$$

OHZ042-051>053-060>062-070>072-077>081-110400-
  SOUTHWEST OHIO

CITY           SKY/WX    TMP DP  RH WIND       PRES   REMARKS
CINC-COVINGTON FAIR      13   4  67 NW5       30.12R WCI   5
CINC-LUNKEN    FAIR      16   5  62 NW7       30.17R WCI   6
HAMILTON       FAIR      11   5  77 W6        30.15R WCI   1
DAYTON         FAIR      12   3  67 W16       30.09R WCI  -5
WRIGHT-PAT AFB PTCLDY    13   3  64 W15       30.09R WCI  -3
DAYTON GENERAL CLOUDY    14   5  67 W7        30.09R WCI   4
WILMINGTON     CLOUDY    13   4  67 W10       30.08R WCI   0
$$

OHZ036-037-039>041-045>050-054>059-063>069-073>076-082>088-110400-
  CENTRAL AND SOUTHEAST OHIO

CITY           SKY/WX    TMP DP  RH WIND       PRES   REMARKS
COLUMBUS       MOCLDY    14   3  61 W13G22    30.06R WCI   0
OSU AIRPORT    FAIR      12   4  70 W14G22    30.05R WCI  -3
BOLTON FIELD   FAIR      11   5  76 W9        30.07R WCI  -1
RICKENBACK AFB FAIR      10   3  73 W9        30.08R WCI  -3
NEWARK         CLOUDY    14   7  73 MISG      30.04S
MARION         CLOUDY    16   7  67 W15G24    30.02R WCI   1
LANCASTER      MOCLDY    14   3  61 W14       30.08R WCI  -1
ZANESVILLE     CLOUDY    16   7  67 W15       30.04R WCI   1
NEW PHILLY     CLOUDY    16   8  71 W10G18    30.00R WCI   4
$$




USA.gov is the U.S. government's official web portal to all federal, state and local government web resources and services.